Theta_e
321 322 324 328 329 327 327 328 327 327 326 324 323 322 321 320 321 320 320 319 318 318 317 316 315 315 312 309 308 307 306 306 307 307 307 307 308 308 308 308 308 309 310 310 310 311 311 311 311 311 311 311 310 310 309 308 307 306 305 304 304 303 302 301 301 301 300 300 300 300 300 300 299 299
321 321 323 327 328 326 327 327 325 325 324 322 321 321 320 319 319 319 319 319 319 317 317 315 314 312 309 307 307 307 307 306 307 308 308 308 308 309 309 309 310 310 311 311 312 312 312 312 312 312 312 312 311 311 310 308 307 306 305 305 304 302 301 300 300 300 300 300 300 300 300 300 299 299
319 320 322 325 326 324 325 324 322 323 323 321 319 318 318 318 318 318 318 319 318 317 316 314 312 311 309 308 308 307 306 307 307 308 308 308 309 309 309 310 310 311 311 312 312 312 312 312 312 312 312 312 312 311 310 309 308 307 307 306 304 301 300 300 300 300 300 300 299 299 299 299 299 299
319 319 321 323 323 323 324 322 321 322 321 320 319 318 317 317 317 316 316 317 318 318 316 313 311 310 309 309 309 307 307 307 308 308 309 309 309 309 309 309 310 311 311 311 311 311 311 312 312 312 312 312 312 312 311 310 309 308 307 306 303 301 300 300 299 299 299 299 299 299 299 299 299 298
320 320 321 322 322 323 324 321 321 322 321 320 320 319 318 317 317 316 315 315 317 317 315 313 311 310 309 309 310 309 308 308 309 309 309 309 309 309 309 310 311 311 311 311 311 311 311 311 312 312 312 312 312 312 312 311 310 309 308 306 302 300 299 299 299 299 299 299 298 298 298 298 298 298
319 319 320 320 321 323 323 322 321 321 320 319 319 319 319 318 318 317 315 315 316 315 313 312 312 310 309 310 311 310 309 309 309 310 309 309 310 310 310 310 311 311 311 311 311 311 311 311 311 312 312 312 312 312 312 312 311 310 308 305 301 299 299 299 299 299 298 298 298 298 298 298 298 298
319 320 319 318 319 320 320 321 321 321 320 319 319 319 319 319 319 318 317 316 316 315 313 313 313 311 310 311 311 311 311 310 310 311 310 310 311 311 311 311 311 311 311 311 311 311 311 311 311 311 312 312 312 312 312 312 311 310 308 303 300 299 299 299 299 298 298 298 298 298 298 298 297 297
319 319 319 319 318 318 319 320 320 320 320 320 319 319 320 320 320 319 318 317 317 316 315 314 313 312 312 312 312 312 312 311 311 311 311 311 311 311 311 311 311 311 311 311 311 311 311 311 311 311 311 312 312 312 312 312 311 310 305 300 299 299 299 298 298 298 298 298 298 297 297 297 297 297
317 318 319 319 319 319 320 320 320 320 319 319 319 319 319 319 319 318 318 318 317 317 316 315 314 313 313 313 313 312 312 312 312 312 312 312 312 311 311 311 311 311 311 311 311 311 311 311 311 312 312 312 312 312 312 312 311 307 302 299 299 299 298 298 298 298 298 298 297 297 297 297 297 297
316 316 316 316 317 319 319 320 320 319 319 318 318 318 317 317 318 317 317 318 318 318 317 315 315 315 314 314 313 312 313 313 313 313 314 313 313 313 312 311 311 311 311 311 311 311 312 312 312 312 312 312 312 312 312 311 308 303 300 299 299 298 298 298 297 297 297 297 297 297 297 297 297 296
317 317 316 314 314 316 317 318 317 316 316 316 316 317 316 316 317 317 317 318 319 318 317 316 316 316 315 315 314 313 313 314 313 314 314 313 313 313 312 311 311 311 311 312 312 312 312 312 312 311 311 312 312 312 312 309 304 300 299 299 298 298 298 297 297 297 297 296 296 296 296 296 296 296
318 319 318 318 318 318 317 317 317 316 316 317 317 317 316 316 316 317 319 319 319 319 318 317 316 316 315 315 315 314 313 314 314 314 314 314 314 313 313 312 311 312 312 312 312 313 313 311 311 311 311 311 312 312 310 305 300 299 299 298 298 297 297 297 297 297 296 296 296 296 296 296 296 296
318 319 319 319 319 319 318 317 317 317 318 318 319 319 318 317 317 318 319 319 319 319 319 317 316 315 315 316 315 315 314 314 315 315 315 315 315 314 313 312 311 311 312 312 312 312 313 311 311 311 310 311 311 309 305 300 299 298 298 298 297 297 297 297 297 297 296 296 296 296 296 296 296 296
318 319 320 319 318 318 318 318 317 317 317 317 318 318 318 318 318 318 319 319 319 319 319 318 316 315 316 315 315 316 315 314 314 315 315 315 315 314 313 312 311 311 311 311 311 311 312 311 310 309 309 309 308 304 300 299 298 298 297 297 297 297 297 297 296 296 296 296 296 296 296 296 296 296
320 320 320 319 318 318 318 317 318 318 317 317 317 317 317 317 317 318 318 318 318 318 317 317 316 316 316 315 315 316 315 314 314 315 315 315 315 314 313 313 313 312 312 312 312 311 310 311 310 309 307 306 304 300 299 299 298 297 297 297 297 297 297 296 296 296 296 296 296 296 296 296 296 296
323 322 321 320 319 318 318 317 317 317 317 317 317 317 317 317 317 317 317 317 317 317 317 316 316 316 316 315 315 315 315 315 314 314 315 315 315 314 314 313 313 313 312 312 312 311 310 310 310 308 305 303 300 298 298 298 297 297 297 297 297 296 296 296 296 296 296 296 296 296 296 296 296 296
324 324 323 322 321 319 318 317 317 317 317 317 317 317 317 318 318 317 316 317 317 316 316 316 316 316 316 316 316 316 315 314 314 314 314 315 315 314 314 313 312 312 312 312 312 311 310 308 306 304 303 302 300 298 298 297 297 297 297 296 296 296 296 296 296 296 296 296 296 296 296 296 296 296
323 324 323 323 322 322 321 318 317 317 317 318 318 317 317 317 317 317 317 317 317 317 316 316 317 317 316 317 317 316 315 313 313 314 314 315 315 314 313 312 312 311 311 312 311 309 307 306 304 302 303 304 302 299 298 297 297 297 296 296 296 295 296 296 296 296 296 296 296 296 296 296 296 296
321 322 321 321 321 321 322 320 318 317 317 318 319 319 318 318 318 317 317 317 318 318 317 316 317 317 317 317 316 316 314 313 314 315 315 315 315 313 313 313 312 312 311 311 308 305 304 305 304 303 303 303 302 301 299 297 296 296 296 295 295 296 296 296 296 296 296 296 296 296 296 296 296 296
320 320 320 320 320 320 321 320 318 318 318 318 319 320 320 319 318 317 317 318 318 318 318 317 316 316 316 316 315 315 315 314 315 315 315 315 314 313 313 311 310 309 307 304 302 302 303 305 304 303 301 301 300 300 299 297 296 296 295 295 296 296 296 296 296 296 297 297 296 296 296 296 296 296
320 320 320 320 320 319 320 319 318 318 318 317 317 319 320 319 317 317 317 318 318 318 318 317 317 317 316 316 315 315 315 315 315 314 314 314 312 311 310 308 307 306 304 301 299 299 302 304 303 301 300 299 298 298 299 298 296 295 295 296 296 296 296 296 296 296 297 297 296 296 295 295 295 295
319 320 319 319 319 319 319 319 318 318 317 316 316 318 319 319 318 317 318 318 319 318 318 318 318 318 318 316 315 314 314 314 314 312 312 310 308 307 307 307 307 306 304 302 298 298 301 303 301 300 299 299 299 300 299 298 296 296 296 296 296 296 296 296 296 296 296 296 295 295 295 295 295 295
318 319 319 319 319 319 319 318 318 317 316 315 316 318 319 319 318 318 318 318 318 318 317 317 317 316 314 312 311 310 310 310 309 308 308 307 306 306 306 306 306 306 305 304 301 299 300 301 300 298 299 299 300 301 299 298 297 296 296 296 297 297 296 296 296 296 295 295 295 294 294 295 294 294
319 319 320 319 319 318 317 317 316 316 316 315 317 318 319 319 318 318 318 318 317 317 316 314 312 310 308 307 307 307 307 306 305 305 305 305 305 305 306 305 304 304 305 304 301 298 298 299 299 298 298 298 299 300 299 298 298 297 296 297 297 297 297 296 296 296 295 295 294 294 295 294 294 293
318 319 318 318 317 317 316 317 316 316 316 316 317 318 318 318 318 317 317 316 315 314 312 310 308 307 307 306 306 306 306 305 305 305 304 303 302 302 303 303 303 303 302 300 298 296 296 297 298 297 297 298 299 299 299 298 298 297 297 297 297 297 297 296 296 296 296 295 295 295 294 294 293 293
316 316 316 316 316 316 316 316 316 316 316 316 317 317 317 317 316 316 316 314 312 311 309 307 307 307 307 306 306 306 306 305 305 305 304 302 300 299 300 300 300 301 300 298 296 296 295 296 296 296 296 297 298 298 298 298 298 298 298 298 297 297 297 297 296 296 296 295 295 295 294 294 293 293
314 314 314 315 315 315 315 315 315 315 316 316 316 316 317 316 315 315 315 312 310 308 307 307 307 306 306 306 306 305 306 306 306 304 302 300 299 298 298 298 297 298 297 296 296 295 295 295 295 294 295 296 297 297 298 298 298 298 298 298 297 297 297 297 296 296 295 295 295 295 294 294 294 294
313 313 313 313 312 313 313 314 314 314 314 314 315 315 316 316 315 314 313 311 309 308 307 307 307 306 306 306 305 305 306 306 305 302 300 299 298 298 297 297 296 296 296 295 295 295 294 294 294 294 294 295 296 297 297 297 297 298 298 297 297 297 296 296 296 295 295 295 295 294 294 294 294 294
311 311 312 311 312 312 312 313 313 313 313 313 312 312 313 314 315 314 311 309 308 308 307 306 306 306 305 304 304 305 306 305 302 300 299 298 297 297 296 296 296 295 295 295 294 294 294 294 294 293 294 295 296 296 297 297 297 297 297 296 296 296 296 296 295 295 295 294 294 294 294 294 294 294
308 309 310 310 311 311 311 311 311 311 311 312 311 310 309 309 311 312 311 308 307 307 306 306 305 305 304 304 304 305 303 301 299 298 298 297 296 296 295 295 296 296 295 294 294 294 294 293 293 294 295 295 296 296 296 296 297 297 297 296 296 296 296 295 295 295 295 294 294 294 294 294 294 293
304 305 306 307 307 307 307 307 307 307 308 308 309 309 308 307 307 309 310 309 307 306 305 305 304 304 305 305 304 301 299 298 298 297 296 295 295 294 294 294 296 297 296 295 294 293 293 293 294 295 295 295 296 296 296 296 296 297 297 296 296 295 295 295 295 295 294 294 294 294 294 294 293 293
299 300 301 302 302 303 303 304 304 305 306 306 306 306 307 307 307 307 308 309 309 306 305 304 304 304 305 304 301 298 298 297 297 296 295 295 295 295 294 295 296 296 296 296 296 295 294 294 294 295 295 295 295 295 295 295 296 296 296 296 295 295 295 295 295 294 294 294 294 294 294 293 293 293
297 297 297 298 299 300 301 302 304 305 306 306 306 305 305 306 308 308 308 310 309 307 305 304 304 305 304 302 300 298 298 297 296 297 297 297 297 296 295 295 296 296 296 296 297 296 295 295 295 295 295 295 295 295 294 295 295 295 295 295 295 295 295 295 294 294 294 293 294 293 293 293 293 292
296 296 296 297 299 301 303 305 306 306 307 307 306 304 303 304 306 307 308 308 308 306 305 304 304 304 302 301 299 298 297 297 297 298 298 298 298 297 295 294 295 296 295 295 296 296 295 295 295 295 295 295 295 295 295 295 295 295 295 295 295 295 295 295 294 294 294 293 293 293 293 292 292 292
296 298 300 301 302 303 304 304 304 304 305 305 304 303 303 304 305 305 306 306 306 305 304 304 304 302 300 299 298 298 298 298 299 299 298 298 297 295 293 293 294 294 294 294 295 295 295 294 295 295 295 296 296 296 296 295 294 295 295 295 295 294 294 294 294 294 293 293 293 292 292 292 292 291
297 301 303 303 303 303 303 303 303 302 302 303 303 303 303 303 304 304 305 305 305 304 304 303 302 300 299 298 298 298 299 299 299 298 297 297 295 293 292 292 293 292 292 294 295 295 294 294 294 295 295 295 295 296 296 295 294 294 294 295 294 294 294 294 294 293 293 293 293 292 292 291 291 291
300 302 303 302 302 303 303 303 303 302 302 302 302 302 302 302 303 304 304 305 305 304 303 302 300 299 298 298 298 299 299 298 297 296 295 294 293 291 291 292 292 292 293 294 295 294 294 294 294 294 294 295 295 295 295 295 294 293 294 294 294 294 294 294 294 294 293 293 292 292 292 291 291 291
301 301 301 301 302 302 302 302 302 302 302 302 302 301 301 301 302 303 304 304 303 302 300 299 299 298 298 299 299 299 298 297 296 294 293 292 291 291 292 292 292 293 294 294 294 294 294 294 294 294 294 294 294 295 295 295 294 294 294 293 294 294 294 294 294 294 293 293 292 292 291 291 291 291
300 300 300 301 301 301 301 301 301 301 301 301 301 301 300 301 302 302 302 302 301 300 299 298 298 298 299 299 298 297 297 296 295 293 292 292 291 291 291 291 292 293 293 293 294 294 294 294 294 294 294 294 294 294 294 294 294 294 294 294 294 293 293 294 294 293 293 293 292 292 291 291 291 291
299 299 299 299 299 300 300 300 300 300 300 300 300 300 300 300 301 301 300 300 299 299 298 298 298 299 298 297 297 296 295 294 293 292 292 292 291 291 290 291 291 292 293 293 293 293 294 294 294 293 293 293 293 294 294 293 294 294 294 294 294 293 293 293 293 293 292 292 292 291 291 292 292 291
298 298 298 298 298 298 298 299 299 299 299 299 299 299 299 299 300 300 299 299 298 298 298 298 298 298 297 296 296 295 293 292 291 291 291 291 291 290 289 289 291 293 293 293 293 293 293 293 293 293 292 292 293 293 294 294 294 295 295 294 294 294 293 293 293 292 292 292 291 291 292 292 292 291
297 297 297 298 298 298 298 298 298 298 298 298 299 299 298 298 298 298 298 298 298 298 298 298 297 296 296 295 293 292 291 291 292 291 291 290 291 290 290 290 292 293 293 293 293 293 292 292 293 293 293 293 293 294 294 294 294 294 294 294 294 294 293 293 292 292 292 291 291 291 291 291 292 292
297 297 297 297 298 298 299 298 298 298 298 298 298 298 298 298 297 297 297 297 298 298 298 297 296 295 294 293 292 291 292 292 291 291 290 290 291 292 292 292 292 292 292 292 292 292 292 292 292 293 293 293 293 293 294 294 294 294 294 294 294 294 293 293 292 292 292 291 291 291 291 291 291 291
297 297 297 297 298 298 299 298 298 298 298 297 297 298 298 297 296 297 297 297 298 298 297 296 294 293 293 293 292 292 292 292 291 291 290 290 291 291 292 292 291 291 292 292 292 292 292 292 292 292 292 293 293 293 293 293 293 294 294 294 294 294 293 293 293 292 292 292 292 291 291 291 291 291
298 297 297 297 298 298 298 298 298 298 298 297 296 297 298 297 296 297 297 297 297 297 296 295 293 293 293 292 292 292 292 291 291 291 291 291 291 291 291 291 291 291 291 291 291 291 292 292 292 292 292 293 293 293 293 293 293 293 294 294 294 294 293 293 293 293 292 293 292 292 291 291 291 291
Wind_Speed
6 6 7 7 6 7 8 8 8 9 9 9 9 7 7 9 11 12 12 12 11 10 10 10 10 10 11 12 11 11 10 10 11 9 8 9 10 11 11 12 12 12 12 11 11 11 11 10 10 9 10 10 11 11 12 12 13 14 14 16 16 17 16 16 15 15 15 15 16 16 16 16 16 16
6 7 8 8 7 8 9 10 12 12 11 9 8 7 6 6 8 10 11 12 11 10 9 9 10 11 11 11 11 11 10 9 10 10 9 10 11 12 12 11 11 10 9 9 8 8 8 8 9 9 10 11 12 13 13 14 15 16 18 19 19 19 18 17 17 17 17 17 17 18 18 18 19 19
7 8 9 9 8 9 11 15 16 15 13 10 8 7 7 6 7 8 9 11 10 9 9 9 10 11 11 10 10 10 10 9 10 11 11 11 11 12 11 10 8 7 7 6 5 6 6 7 8 9 10 11 13 14 15 16 17 18 19 21 21 19 18 17 17 17 17 17 18 18 19 19 19 20
8 8 9 9 11 12 14 18 18 15 13 11 9 8 8 8 8 7 7 10 10 9 9 10 10 11 11 11 10 10 10 10 11 12 11 11 11 10 9 8 7 6 5 3 3 4 5 6 7 8 10 12 13 15 16 17 18 19 21 21 21 19 18 17 17 17 17 17 18 18 19 19 20 20
8 9 9 11 13 14 16 18 16 14 13 10 8 8 7 7 7 6 7 9 10 10 9 10 10 11 11 11 11 11 11 11 12 12 11 10 10 9 8 7 7 5 3 1 2 3 4 6 7 9 11 12 14 15 17 18 19 20 22 22 20 18 18 17 17 17 17 18 18 19 19 20 20 21
9 9 9 11 13 14 15 15 13 12 11 8 7 6 6 6 5 5 6 8 9 10 10 11 11 11 11 11 11 12 12 12 13 13 12 10 10 9 8 6 6 4 2 1 2 3 5 6 8 10 11 12 14 15 17 19 20 22 23 22 20 19 18 18 18 18 18 18 19 19 20 20 21 22
8 9 10 10 11 12 13 12 11 10 9 7 6 5 5 5 5 5 5 7 8 9 11 11 11 12 12 11 12 12 12 13 13 12 12 11 10 11 9 7 6 5 3 3 4 5 6 7 9 10 12 13 14 16 18 20 21 23 23 21 19 18 18 18 17 17 18 18 18 19 20 20 21 22
7 8 9 9 10 10 11 10 9 8 8 7 6 5 4 4 5 6 6 7 8 9 11 12 11 12 12 11 12 13 13 14 13 12 12 11 11 10 9 8 9 6 5 6 6 7 9 10 11 12 13 14 16 17 19 21 23 24 22 20 19 19 18 18 18 18 18 19 19 20 21 21 22 23
7 6 7 7 8 8 7 7 7 6 6 6 5 5 5 5 6 7 7 8 9 10 11 12 12 12 13 12 13 14 14 14 14 13 12 12 11 11 10 11 11 8 8 9 9 10 11 12 13 14 15 16 17 19 21 22 24 23 21 20 19 19 18 18 19 19 19 20 20 21 22 22 23 24
6 6 6 6 7 7 6 6 7 6 7 6 6 6 6 6 7 8 8 10 11 12 12 13 13 14 14 14 15 16 15 15 15 14 13 12 12 12 13 13 13 11 10 11 11 12 13 13 14 15 16 17 19 20 22 23 24 22 20 19 19 18 18 18 18 18 19 19 20 21 21 22 23 23
6 5 5 5 5 6 6 6 7 7 8 7 7 8 7 7 8 9 9 11 13 14 13 14 15 15 16 16 16 16 16 15 15 15 14 14 14 14 14 14 14 13 12 12 12 13 14 14 15 16 17 19 20 22 23 23 22 20 19 19 19 18 19 19 19 20 20 21 21 21 22 23 23 23
6 5 4 4 4 5 6 6 7 7 7 7 6 7 8 8 9 9 9 11 14 16 15 15 15 15 16 16 16 16 17 17 16 15 15 14 14 14 15 16 16 15 14 14 15 15 16 16 17 18 19 21 21 23 24 23 20 20 19 19 20 19 20 20 21 21 21 22 22 23 23 24 24 25
6 5 4 4 4 5 6 7 7 7 7 7 6 7 7 8 9 9 9 11 14 16 16 16 15 16 16 17 17 17 19 19 17 16 16 15 14 15 15 17 18 16 13 12 13 16 17 16 17 19 19 23 24 22 23 23 19 19 20 20 20 21 21 22 22 22 23 23 24 25 25 26 26 26
7 6 5 5 5 6 6 7 8 8 8 9 9 8 8 8 9 9 10 12 13 15 17 17 16 17 17 17 18 19 19 19 17 16 17 16 15 15 14 15 18 17 14 11 10 14 18 16 14 14 14 21 25 21 20 23 21 20 20 20 21 22 22 22 23 23 24 25 26 26 26 27 26 26
8 7 7 7 7 7 8 8 9 9 9 10 11 11 11 11 11 12 13 13 14 15 16 16 17 18 18 17 18 19 18 19 19 19 19 17 16 15 14 14 16 16 15 15 13 14 18 17 13 12 12 17 23 21 19 21 21 20 21 21 21 22 22 23 24 24 26 26 26 26 26 26 25 25
8 8 8 9 9 9 9 9 10 11 11 11 12 13 14 14 14 14 15 16 16 16 17 17 18 18 18 18 19 19 18 20 22 21 19 18 18 18 16 14 14 15 16 15 13 13 18 20 17 15 16 19 22 21 19 19 19 20 22 21 21 22 22 24 25 26 27 27 27 26 26 25 25 24
9 9 9 9 10 12 11 11 12 13 13 13 14 15 17 17 17 17 16 18 19 19 19 19 18 18 19 18 18 20 22 23 23 22 21 20 18 18 16 13 15 18 17 14 12 12 16 21 19 14 14 18 21 21 20 20 20 20 21 20 21 22 23 24 26 27 28 28 28 28 27 26 25 25
11 10 10 10 11 12 13 13 14 14 15 16 16 17 19 19 19 18 17 18 19 21 22 21 20 19 19 19 19 22 24 23 23 22 20 19 18 17 17 17 18 20 18 16 15 12 12 17 16 10 9 14 18 21 23 23 21 19 19 20 21 22 24 25 26 27 28 28 28 28 28 27 26 25
14 14 14 14 14 13 14 15 15 15 17 17 16 16 17 17 17 18 19 19 19 20 22 23 23 21 21 23 23 23 22 21 22 21 18 18 18 18 18 19 21 21 20 18 17 12 9 11 12 8 8 11 13 15 21 24 21 18 19 20 21 22 24 25 26 27 27 28 28 27 26 25 24 23
17 17 17 17 17 17 16 17 18 16 17 18 16 15 15 14 16 18 18 18 19 20 22 24 25 24 23 24 24 22 22 22 23 21 19 20 20 17 15 14 15 18 19 18 15 12 9 9 11 10 9 12 13 14 18 21 20 17 19 21 21 22 23 24 26 26 26 25 25 24 23 22 21 20
18 19 19 19 19 19 19 20 20 18 18 19 17 15 14 14 17 18 18 19 21 21 23 24 24 24 22 22 23 23 23 23 21 19 18 19 18 14 12 12 11 12 15 16 14 11 8 8 10 11 11 14 16 13 13 17 20 20 21 22 23 23 23 24 24 24 23 23 22 21 20 20 19 19
19 20 21 21 20 20 20 21 21 19 18 17 15 14 13 14 16 18 18 20 22 24 26 26 25 23 22 22 23 24 22 22 22 19 16 15 15 13 11 11 10 10 13 16 13 8 6 8 10 12 12 13 13 10 11 16 20 21 21 23 24 23 23 23 23 22 22 21 19 18 18 18 19 18
17 18 20 21 20 20 21 22 21 18 16 14 12 12 13 14 17 18 18 19 22 24 25 25 24 22 21 22 23 23 22 22 22 20 17 14 13 12 11 11 10 8 12 17 14 7 6 8 10 11 11 8 7 9 12 15 17 18 18 18 18 19 21 22 21 21 22 21 18 17 18 19 20 17
12 15 16 18 18 19 20 19 18 15 13 11 10 11 13 14 16 17 15 17 21 22 22 22 21 20 20 21 22 21 22 22 21 22 20 17 13 10 9 11 9 8 13 18 15 10 9 9 9 10 9 7 7 9 11 13 14 16 15 12 11 13 16 17 17 18 20 19 17 18 19 20 20 17
10 10 11 14 15 15 15 14 14 13 12 11 12 13 13 14 16 16 15 16 18 21 21 20 20 20 20 21 21 21 22 22 21 21 20 19 17 15 12 10 8 7 13 17 13 11 10 8 8 9 8 8 9 9 11 12 12 12 10 9 9 11 12 13 13 13 15 14 13 15 18 18 19 18
7 7 10 13 14 12 12 12 13 12 12 13 14 15 15 15 16 17 17 16 17 19 20 18 19 21 21 20 21 21 22 22 21 20 19 18 18 17 15 13 10 9 13 13 10 9 8 7 8 9 8 8 9 9 10 10 9 8 8 8 9 11 11 12 13 12 11 10 10 13 16 16 17 19
8 9 12 14 13 12 13 13 13 13 14 14 15 17 18 18 18 18 18 19 19 20 20 20 21 21 20 20 21 21 21 22 21 20 18 17 16 15 14 13 12 12 12 11 9 8 8 7 9 11 10 9 9 8 8 8 8 8 9 8 10 11 11 12 12 10 9 10 11 13 15 15 16 17
14 15 16 16 16 16 16 15 15 15 16 16 18 18 19 20 21 20 20 21 21 21 20 20 19 19 19 19 19 21 22 22 20 17 16 15 13 12 11 10 10 10 10 9 8 8 8 7 9 12 12 9 7 7 8 9 8 9 9 10 11 11 11 11 10 9 9 10 11 13 15 14 14 14
21 21 21 22 22 21 20 19 18 18 18 19 20 20 20 22 24 24 25 25 25 25 24 20 15 15 16 17 20 23 22 19 16 15 13 12 10 9 8 8 8 7 6 7 8 8 9 9 9 11 10 8 6 7 8 9 9 9 11 12 12 11 10 10 9 9 10 11 12 13 14 13 13 13
24 24 24 25 25 24 23 22 21 21 21 21 21 21 21 23 26 27 26 26 28 28 25 20 17 17 18 20 21 20 17 14 14 13 11 9 8 6 5 4 5 6 7 7 8 8 10 11 10 9 7 6 7 8 8 9 10 11 11 12 12 11 9 8 8 9 11 12 13 13 12 12 13 12
24 24 24 24 24 24 24 23 22 23 24 23 23 23 22 23 25 26 26 26 28 26 21 18 20 22 23 23 19 14 11 11 12 10 7 5 4 3 2 1 3 6 10 12 11 10 10 10 8 6 6 7 8 8 8 9 10 11 11 11 10 10 9 8 9 10 11 12 13 12 11 12 12 11
23 23 23 23 23 23 22 22 21 21 22 23 24 24 24 24 25 26 26 27 27 25 23 22 24 26 26 22 17 13 11 10 9 8 7 5 3 3 2 2 3 5 8 9 10 10 9 7 5 5 6 7 7 7 7 7 8 9 10 10 9 8 9 10 10 10 11 12 12 12 12 12 11 10
20 21 21 20 20 20 20 19 19 20 20 21 21 22 22 23 23 24 25 25 25 25 25 26 27 28 26 22 18 16 14 12 11 9 7 5 5 5 3 3 4 6 6 6 6 6 6 5 6 7 8 8 8 8 6 5 6 8 8 8 8 8 9 10 10 10 11 11 12 12 12 11 11 10
16 17 17 17 17 17 17 18 18 19 20 20 19 18 18 19 20 20 21 23 24 24 24 25 26 27 25 22 20 19 17 15 12 10 8 7 7 5 3 3 5 7 7 6 6 6 6 5 6 8 8 9 11 13 10 6 5 7 8 7 8 9 9 10 10 10 10 11 11 12 12 11 10 9
12 12 12 12 12 12 12 12 13 13 14 15 15 14 14 16 18 18 20 23 24 24 25 26 26 26 24 23 22 20 17 15 14 12 10 8 6 4 4 5 7 8 8 6 6 6 6 5 5 6 6 6 7 11 12 9 7 7 7 7 7 8 9 9 9 10 11 10 10 11 12 11 10 8
10 9 9 9 9 10 11 11 11 11 11 11 11 12 14 16 17 18 20 23 24 25 27 28 28 26 24 21 19 18 17 16 15 12 10 8 6 5 6 8 9 9 7 5 5 5 5 5 5 5 6 6 5 7 10 12 10 7 6 7 7 7 8 9 9 10 10 10 9 10 11 10 9 8
8 8 8 9 9 10 11 11 10 10 10 9 9 10 13 16 18 19 20 22 24 26 28 28 27 25 22 19 18 18 17 15 12 10 8 6 6 6 7 8 8 7 5 4 5 5 4 5 5 4 4 6 6 6 8 10 10 8 7 7 7 7 8 9 9 10 10 9 9 9 10 9 8 7
8 9 9 10 10 11 12 11 11 10 9 9 9 9 10 14 19 21 22 23 25 27 26 25 24 22 20 19 18 17 16 13 10 8 6 5 5 6 7 7 7 6 5 5 5 5 4 4 4 4 4 5 7 8 8 8 9 10 9 7 6 7 9 11 12 12 10 9 9 9 9 8 7 8
8 8 9 10 10 11 12 12 11 10 9 8 9 8 10 15 20 23 24 25 26 26 25 24 23 20 18 17 16 15 13 11 9 7 6 6 6 7 8 8 7 6 6 5 5 4 4 5 4 4 4 6 6 8 9 8 7 8 9 8 8 10 12 13 13 11 9 9 9 8 8 8 9 11
7 7 8 9 9 9 10 10 9 9 9 10 10 9 11 16 21 24 27 27 27 25 23 21 19 17 15 15 14 12 9 7 6 6 6 7 7 8 8 7 6 6 5 5 4 4 4 5 6 5 5 7 7 8 8 7 5 6 8 10 11 13 14 13 10 8 8 8 8 9 9 8 8 10
7 7 7 8 7 8 9 9 8 8 9 11 13 13 13 16 21 26 29 27 24 22 20 17 15 15 15 13 10 8 6 5 4 5 7 7 8 8 7 4 4 5 5 5 4 4 4 5 7 6 6 6 6 6 7 7 7 8 10 11 13 15 15 12 9 8 8 7 7 8 9 8 7 6
7 7 7 8 8 8 8 9 10 10 9 10 13 14 14 16 20 25 27 25 22 20 17 15 15 14 12 9 7 7 6 5 6 7 7 6 6 6 5 2 2 5 6 5 4 5 6 6 5 5 5 5 5 6 7 8 8 8 9 10 13 16 15 11 8 7 8 7 7 7 7 7 6 6
8 7 7 8 9 8 7 7 8 8 8 7 9 10 11 13 17 22 25 25 22 17 13 14 15 12 8 7 7 6 5 6 6 7 6 5 5 5 4 4 5 5 5 5 5 6 6 6 5 5 5 5 5 6 6 7 8 9 9 9 10 12 13 11 9 9 9 10 10 10 9 7 6 6
8 8 8 8 8 7 6 6 7 5 4 4 4 5 5 7 14 23 27 25 19 13 12 15 13 9 6 7 7 5 5 5 6 6 5 4 5 5 5 5 5 5 4 5 6 6 6 6 6 5 5 5 5 5 6 8 9 9 9 9 8 8 9 10 10 10 10 11 11 11 11 9 7 7
7 8 8 7 7 7 6 6 6 4 3 2 2 2 3 6 13 22 26 21 14 11 14 15 11 7 7 8 7 5 6 6 5 5 4 4 4 4 4 4 5 5 5 5 5 5 5 5 4 5 5 5 5 6 7 8 9 9 8 8 8 7 7 7 8 8 9 10 11 11 11 11 9 9
Wind_Direction
116 126 143 152 172 172 158 158 157 151 150 151 147 144 151 154 152 152 150 145 146 147 145 143 141 144 144 141 137 136 139 137 131 131 133 131 128 126 125 121 116 110 105 102 98 92 85 78 70 60 51 45 39 34 30 27 24 22 20 18 16 14 13 13 12 10 8 5 4 2 0 357 353 349
125 119 136 148 163 166 158 155 150 143 140 138 135 134 141 150 156 157 151 146 151 156 155 153 153 156 153 148 147 149 153 151 144 144 146 143 140 138 135 132 125 118 113 107 97 85 73 64 53 41 33 28 25 22 19 18 16 15 13 11 9 8 8 8 7 5 3 1 359 358 357 354 352 348
138 123 128 141 154 158 153 149 144 137 133 130 125 124 122 124 138 152 150 147 152 158 157 155 159 161 158 157 160 162 166 164 155 155 156 153 150 148 146 143 138 133 125 110 90 75 60 48 38 27 20 16 14 12 11 10 9 8 5 4 3 3 3 2 1 359 358 356 354 354 353 350 348 346
140 129 126 133 143 146 146 146 144 140 137 131 123 121 114 110 118 134 147 149 149 156 159 158 162 167 166 165 168 171 174 171 163 162 165 163 160 158 158 158 158 157 145 115 77 57 44 29 21 13 8 5 3 3 3 2 1 360 358 357 356 356 357 357 356 355 353 352 350 348 348 346 344 342
129 124 122 131 139 142 147 150 149 147 142 134 128 124 118 116 119 124 138 145 151 162 163 160 169 178 173 168 172 179 182 177 169 169 176 173 166 169 177 179 179 179 170 126 55 28 14 5 359 357 355 353 352 353 354 353 353 352 351 350 350 350 351 351 350 350 348 347 345 344 342 340 338 336
122 121 120 130 140 145 148 150 150 150 148 145 143 137 132 133 132 134 143 147 156 169 171 169 180 187 178 172 180 188 189 181 171 174 184 176 168 179 190 200 207 203 211 300 345 346 342 341 340 340 340 340 341 343 344 344 344 344 343 343 343 344 345 345 345 344 343 342 340 338 337 334 332 330
117 121 125 131 141 146 145 146 150 154 156 160 166 161 157 158 159 160 161 161 166 174 180 182 187 191 185 181 186 189 188 182 174 178 186 179 179 188 185 201 234 239 251 291 312 317 316 319 320 323 326 329 333 334 335 336 336 336 336 336 337 337 338 339 338 337 337 336 333 331 329 327 325 324
116 120 128 135 144 149 148 151 158 162 165 171 178 184 191 197 199 194 187 186 183 181 185 189 190 193 190 186 188 187 186 186 181 184 191 186 192 199 185 200 235 252 266 282 295 300 302 306 308 312 317 321 324 325 327 329 329 329 329 329 330 332 333 333 334 333 332 329 327 324 322 321 319 318
127 129 137 144 153 158 160 164 170 178 185 189 198 212 221 228 233 228 213 204 201 195 192 190 190 194 192 188 190 188 187 189 188 192 199 195 198 205 200 214 239 257 268 278 288 293 296 302 304 307 311 313 315 318 319 321 322 323 323 324 326 326 327 328 327 326 324 322 320 318 316 316 314 314
136 139 151 163 169 173 179 187 193 203 211 214 220 226 228 227 237 244 229 211 207 206 200 192 190 194 194 191 192 192 192 193 193 196 202 201 204 210 212 228 249 260 266 276 283 287 293 297 298 301 303 304 307 309 312 314 315 317 317 318 319 320 320 320 318 316 314 313 312 311 311 310 309 309
143 143 158 171 178 187 194 204 213 221 227 229 227 229 229 225 233 244 235 215 209 208 205 200 197 196 196 195 196 196 196 198 200 202 205 206 209 215 220 235 254 262 264 271 275 277 283 286 287 290 293 296 300 303 305 308 310 312 313 314 316 317 316 315 314 312 311 311 311 310 309 309 308 307
158 154 162 164 177 196 203 208 217 222 227 232 235 238 239 234 235 238 231 219 212 208 206 205 204 201 199 200 199 198 199 203 206 208 212 214 215 219 225 237 253 262 265 269 271 274 278 279 281 285 287 290 294 298 301 303 306 309 311 313 314 314 313 313 312 312 312 311 311 310 310 309 308 307
179 174 181 189 201 219 225 226 228 229 228 230 234 239 244 245 243 239 232 224 216 212 212 212 210 205 204 204 202 201 202 206 209 212 218 222 220 220 226 236 247 254 256 259 265 272 274 274 279 284 286 289 296 300 301 304 309 309 310 311 311 312 312 312 312 313 313 312 311 311 311 309 308 307
207 208 218 231 239 244 247 247 248 247 247 245 241 242 245 247 244 241 237 230 223 220 220 219 217 214 213 210 207 208 210 211 213 214 218 222 219 214 217 233 247 250 242 232 236 259 268 268 273 279 277 286 298 304 301 305 311 310 309 310 310 312 312 312 313 313 312 312 311 311 310 309 307 305
224 227 234 248 257 261 260 260 258 254 255 256 254 255 256 254 250 243 239 236 232 231 229 227 225 224 225 221 215 216 216 213 214 217 220 222 220 214 212 226 249 256 247 235 228 247 268 271 266 263 260 273 290 296 295 300 306 306 308 311 311 312 313 312 313 313 311 311 310 309 309 307 305 302
229 234 243 254 263 267 267 268 270 268 265 264 263 263 261 260 257 249 241 236 233 234 235 235 234 232 232 229 222 218 216 215 220 224 225 224 222 222 224 228 245 255 251 244 235 242 267 275 270 264 264 270 282 290 294 300 307 309 312 314 313 313 313 313 313 312 311 312 312 311 311 309 306 304
230 234 242 253 264 270 270 270 272 273 273 271 269 268 265 262 258 252 244 237 234 234 236 239 240 239 237 235 228 224 226 229 231 230 228 228 226 229 235 234 239 249 250 245 242 245 259 269 273 273 269 274 286 297 305 310 315 315 314 314 313 313 313 312 312 312 312 313 314 314 314 312 310 308
236 239 245 250 257 264 269 272 273 275 278 278 273 270 268 264 259 252 243 238 235 235 237 240 243 242 240 238 235 235 239 240 238 236 233 231 229 230 233 231 233 244 250 247 248 251 251 258 268 270 257 267 287 303 310 314 318 318 314 313 313 312 312 313 313 313 314 315 316 316 316 316 314 313
242 247 252 254 257 259 262 268 272 274 278 279 274 268 266 262 257 249 241 239 237 237 238 241 242 242 241 240 240 242 243 237 233 234 230 227 230 233 235 236 239 245 252 252 251 249 246 251 259 262 259 266 280 294 301 308 316 319 314 313 312 312 313 313 313 313 313 315 315 316 316 316 315 315
247 252 255 258 262 264 264 267 270 272 276 276 270 264 259 254 251 246 240 239 239 239 239 240 242 243 244 244 244 243 240 235 234 236 234 235 241 240 234 237 243 246 252 254 248 243 246 248 253 265 272 276 281 285 290 299 312 317 312 310 312 313 312 311 310 310 312 314 315 316 316 316 317 317
252 256 257 258 262 265 266 269 273 275 275 272 264 257 251 249 251 245 238 238 242 242 242 241 242 245 246 244 242 240 240 240 239 235 234 237 237 229 224 228 228 233 246 252 249 248 252 248 257 274 284 288 295 294 284 293 310 319 317 316 317 315 312 312 312 313 315 317 319 319 319 318 318 317
260 260 260 261 263 266 267 270 276 278 272 265 258 251 244 243 246 244 239 240 243 241 240 239 238 240 241 239 237 236 236 237 234 225 221 224 222 217 220 226 218 216 238 256 262 260 254 254 265 280 292 298 298 285 275 294 312 322 323 322 321 320 318 320 321 320 320 322 324 325 323 320 317 317
261 262 264 265 264 264 266 270 274 270 262 257 254 246 240 239 244 248 248 247 248 247 245 243 241 237 235 234 232 230 229 229 227 218 210 208 214 217 217 219 216 210 231 254 269 269 252 261 270 280 292 299 281 269 284 302 311 316 321 322 321 323 326 327 328 325 322 326 334 335 330 324 322 323
264 266 269 268 266 265 267 268 264 253 246 248 247 242 242 246 252 259 260 253 251 251 249 247 245 240 233 229 226 224 224 223 219 215 211 206 204 205 208 217 221 220 232 248 265 272 264 264 269 278 290 291 273 272 287 297 300 307 320 327 321 322 324 324 325 323 319 325 336 335 326 323 326 329
269 270 265 265 266 266 264 259 250 242 240 243 242 239 241 247 254 262 265 257 250 247 244 242 239 232 225 221 219 217 216 215 214 215 217 217 211 204 202 206 206 222 244 253 264 273 272 269 272 282 290 286 279 278 285 293 297 302 313 321 316 316 317 315 316 317 315 322 331 325 317 320 329 331
261 262 260 264 268 267 261 255 248 244 245 247 246 244 242 242 246 253 260 259 251 246 242 235 228 225 220 215 213 213 212 213 216 220 222 224 223 219 217 216 210 224 253 266 272 275 278 277 279 288 291 283 282 284 288 296 296 292 302 314 312 313 315 314 314 314 315 321 323 315 313 321 328 326
262 263 266 269 268 264 262 260 257 255 253 251 252 253 252 249 245 246 254 257 251 244 239 230 223 219 213 208 208 209 213 218 222 226 226 226 229 231 234 236 236 241 256 271 277 282 292 293 291 298 298 287 286 289 290 293 292 295 306 311 306 310 315 313 311 314 318 320 318 314 316 322 323 320
279 275 275 276 274 271 268 265 262 262 259 256 257 259 259 256 248 241 241 245 242 235 227 220 215 210 205 204 206 209 216 223 225 227 230 231 234 240 244 246 249 252 263 278 287 296 303 299 296 300 302 296 289 286 288 293 296 301 307 307 306 310 312 311 312 317 319 317 315 316 319 320 319 319
278 276 276 276 276 274 273 270 267 265 263 262 262 262 262 261 257 247 237 234 234 227 217 205 198 199 197 197 205 214 221 226 227 228 232 236 240 244 245 248 253 259 270 287 299 308 312 309 301 298 300 299 287 281 289 298 300 302 306 307 307 308 308 311 315 317 315 314 314 316 318 318 318 318
275 273 273 273 274 274 274 275 274 272 269 267 267 266 263 263 264 260 251 241 235 230 221 208 199 201 203 207 215 222 223 219 220 225 230 234 236 239 245 261 277 288 301 312 315 314 312 310 303 294 293 291 281 282 294 300 301 304 305 304 304 306 309 313 313 311 312 314 316 318 318 317 317 317
276 274 274 274 275 276 277 277 277 275 274 273 273 272 268 265 266 270 267 255 241 231 222 211 207 212 220 223 221 213 203 204 212 216 213 210 216 228 259 283 273 285 302 314 321 320 312 304 296 285 283 286 286 290 296 297 298 303 302 300 301 303 306 308 307 308 312 316 320 322 320 318 318 317
277 276 276 277 278 279 281 280 278 274 272 273 273 271 266 263 264 267 267 260 248 235 221 214 217 222 225 220 206 194 197 209 213 208 200 201 218 247 279 283 241 254 276 293 308 316 313 298 279 269 273 279 282 289 297 297 298 300 299 298 300 299 300 304 305 307 314 320 324 324 320 320 320 316
280 280 281 282 283 283 283 282 279 274 270 271 274 272 266 261 260 260 259 256 249 236 223 218 222 226 222 213 206 210 217 218 215 215 219 234 253 263 273 263 248 253 257 256 265 283 290 282 276 283 298 308 308 308 307 300 298 302 300 296 296 297 298 302 306 310 319 326 325 322 320 320 318 314
287 288 289 290 291 290 287 285 282 278 273 271 275 279 276 269 265 261 255 250 243 232 222 221 223 221 216 211 211 213 214 215 222 233 242 248 253 258 250 233 241 254 258 252 248 253 262 273 282 291 304 314 314 311 308 302 299 300 297 290 292 298 302 305 308 315 322 326 322 319 319 320 318 314
298 296 295 295 296 294 292 291 289 286 281 276 276 282 283 276 268 258 247 239 231 221 215 217 219 216 213 211 210 210 214 222 232 237 238 239 239 232 223 228 239 250 258 258 253 253 264 280 292 295 296 303 304 296 293 296 301 295 291 291 293 298 304 308 310 316 322 322 318 316 317 318 319 316
303 298 290 287 287 286 286 288 287 283 279 273 272 276 276 272 268 259 245 233 224 217 216 217 218 215 211 209 209 214 221 226 228 228 226 225 220 216 224 237 247 256 263 260 248 252 273 288 296 300 301 309 310 288 285 297 304 292 283 293 299 304 311 313 313 318 321 317 316 316 315 316 319 318
304 297 290 286 284 283 283 283 279 274 270 265 264 268 269 267 265 258 244 231 223 220 222 222 218 213 210 211 216 221 221 219 218 216 215 215 217 225 240 253 262 268 268 250 242 252 274 287 295 304 307 307 307 293 288 298 304 297 289 294 302 310 316 315 312 313 315 313 313 314 311 312 317 318
309 301 295 290 287 284 282 279 274 271 271 268 263 259 256 257 255 246 235 228 224 222 221 219 214 212 215 218 218 216 212 209 206 205 208 218 229 239 245 250 255 258 254 243 239 248 268 281 290 300 302 301 302 299 294 296 301 302 302 306 312 317 320 318 313 310 309 309 311 310 308 307 308 314
312 306 297 288 282 278 277 277 274 271 269 266 263 256 248 251 250 240 230 225 223 221 218 215 214 217 219 214 208 206 205 204 198 193 206 226 237 242 243 242 242 246 249 246 240 246 268 285 288 287 292 294 291 289 289 288 289 295 301 313 324 325 321 318 314 310 305 306 309 312 313 308 307 317
316 313 305 296 286 278 273 270 270 273 271 268 266 259 252 254 250 237 226 222 220 217 216 216 217 214 206 200 199 199 197 192 185 192 214 232 241 245 246 244 244 246 251 255 257 263 280 284 273 268 279 285 282 281 287 290 293 304 310 315 321 323 320 316 310 302 299 304 311 316 320 319 314 314
327 328 324 317 310 298 287 276 269 269 271 272 270 263 257 256 247 232 224 221 219 216 216 216 209 199 192 192 191 182 173 176 194 213 226 237 248 257 259 248 241 253 261 263 269 282 289 279 271 275 291 296 289 288 296 299 303 313 316 314 314 317 318 313 303 295 295 302 310 314 317 322 319 310
344 344 335 327 324 319 308 294 276 265 263 272 274 268 260 254 241 226 217 215 214 216 216 208 191 180 175 172 164 162 175 201 217 227 234 235 246 271 297 301 247 255 265 272 281 287 288 286 289 302 312 307 291 287 295 303 305 307 308 306 309 313 315 312 306 306 311 322 332 331 324 321 318 316
351 351 340 333 335 331 322 318 304 279 261 265 276 275 266 251 232 217 209 208 210 214 207 186 169 158 155 166 175 183 205 224 232 245 250 231 223 250 280 278 261 261 270 283 293 294 291 287 284 288 291 289 285 290 302 313 314 307 300 301 306 310 312 315 323 329 332 338 346 349 344 331 318 312
349 352 348 342 341 334 322 327 331 309 270 261 277 279 267 238 218 210 207 207 209 205 181 165 156 149 161 184 190 196 218 233 243 257 260 233 216 227 244 255 266 282 293 292 290 293 291 282 275 276 283 287 294 303 310 313 312 305 296 295 300 301 302 309 319 326 327 329 335 343 346 343 332 318
358 2 359 352 351 351 346 341 340 335 334 349 340 295 249 224 214 210 208 207 205 187 167 159 155 159 173 184 190 201 225 241 247 251 248 236 232 241 257 268 276 283 287 287 289 290 289 285 282 286 292 297 303 307 307 306 305 302 294 291 294 298 299 302 304 307 312 314 316 324 334 341 340 335